Regional Weather Roundup
Issued by NWS

Home | Current Version | Previous Version | Graphics & Text | Print | Product List | Glossary On
Versions: 1 2 3 4 5 6 7 8 9 10 11 12 13 14 15 16 17 18 19 20 21 22 23 24 25 26 27 28 29 30 31 32 33 34 35 36 37 38 39 40 41 42 43 44 45 46 47 48 49 50
226
ASUS43 KDTX 241401
RWRMI
MICHIGAN HOURLY REGIONAL WEATHER ROUNDUP
NATIONAL WEATHER SERVICE DETROIT/PONTIAC MI
1000 AM EDT SAT JUN 24 2017

NOTE: "FAIR" INDICATES FEW OR NO CLOUDS BELOW 12,000 FEET WITH NO
SIGNIFICANT WEATHER AND/OR OBSTRUCTION TO VISIBILITY.

MIZ047>049-052>055-059>063-066>070-074>076-081>083-241500-
SOUTHEAST LOWER MICHIGAN

CITY           SKY/WX    TMP DP  RH WIND       PRES   REMARKS
ADRIAN         SUNNY     69  55  60 W10       29.89R
ALMA           SUNNY     68  56  64 W7        29.84S
ANN ARBOR      SUNNY     69  57  65 W12G28    29.86R
BAD AXE        SUNNY     68  52  56 W10       29.82S
CARO           SUNNY     68  57  68 CALM      29.82S
DETROIT CITY   SUNNY     71  55  56 NW9       29.84R
DETROIT        MOSUNNY   72  56  57 W12       29.86R
FLINT          SUNNY     68  56  65 W5        29.84S
GROSSE ILE     SUNNY     71  57  60 W8        29.84S
HILLSDALE      SUNNY     68  54  60 W5        29.89S
HOWELL         SUNNY     69  51  52 W10       29.85S

CITY           SKY/WX    TMP DP  RH WIND       PRES   REMARKS
JACKSON        SUNNY     69  56  62 W6        29.88R
LAMBERTVILLE   SUNNY     70  57  64 W8        29.87S
LANSING        SUNNY     71  53  52 W10       29.86R
LAPEER         FAIR      68  55  63 W5        29.84R
MASON          SUNNY     68  55  63 W8        29.87R
MONROE         SUNNY     70  57  63 W9        29.85S
MT. CLEMENS    MOSUNNY   71  58  62 W7        29.82R
PONTIAC        MOSUNNY   69  56  62 W8        29.83R
PORT HOPE        N/A     68  51  54 W7        29.79R
PORT HURON     SUNNY     68  52  56 CALM      29.83S
TRI CITIES     SUNNY     68  58  70 SW8       29.82S
MIDLAND        FAIR      69  53  55 W5        29.81F
TROY           SUNNY     71  53  53 W12       29.86R
SAGINAW HB     SUNNY     70  54  56 SW6       29.81S
$$
MIZ043>046-050>051-056>058-064>065-071>073-077>080-241500-
SOUTHWEST LOWER MICHIGAN

CITY           SKY/WX    TMP DP  RH WIND       PRES   REMARKS
BATTLE CREEK   SUNNY     68  57  68 W8        29.89R
BENTON HARBOR  PTSUNNY   67  55  65 W15       29.93R
BIG RAPIDS     SUNNY     66  54  64 W6        29.83S
COLDWATER      SUNNY     68  57  67 W8        29.90R
FREMONT        FAIR      67  56  67 W5        29.85R
HOLLAND        MOSUNNY   66  56  70 NW10      29.89R
GRAND RAPIDS   MOSUNNY   68  58  70 W12       29.87R
IONIA          FAIR      69  55  60 W7        29.85R
KALAMAZOO      SUNNY     70  54  56 W12       29.89R
LUDINGTON      CLOUDY    63  56  80 NW9       29.85R
MARSHALL       SUNNY     69  56  62 W7        29.88R
MOUNT PLEASANT SUNNY     68  52  56 W8        29.82S
MUSKEGON       PTSUNNY   67  57  70 W10       29.87R
SOUTH HAVEN    MOSUNNY   66  58  73 NW12G17   29.91R
$$
MIZ016>042-241500-
NORTHERN LOWER MICHIGAN

CITY           SKY/WX    TMP DP  RH WIND       PRES   REMARKS
ALPENA         SUNNY     68  53  58 W10       29.77S
BEAVER ISLAND  PTSUNNY   61  53  74 W5        29.81R
BELLAIRE       MOSUNNY   63  51  64 CALM      29.81R
CADILLAC       MOSUNNY   66  52  59 W9        29.82R
CHARLEVOIX     PTSUNNY   60  54  79 NW7       29.84R
FRANKFORT      MOSUNNY   64  53  67 W10       29.84R
GAYLORD        MOSUNNY   65  49  56 W9        29.80R
GRAYLING       PTSUNNY   65  54  65 W12       29.81S
HARBOR SPRINGS MOSUNNY   61  56  82 SW7       29.80R
HOUGHTON LAKE  MOSUNNY   67  52  58 W9        29.82R
MANISTEE       MOSUNNY   65  56  72 NW16      29.84R
OSCODA         MOSUNNY   70  50  49 W14       29.78S
PELLSTON       SUNNY     64  52  64 W8        29.79R
ROGERS CITY    SUNNY     62  54  77 NW10G16   29.78S
TRAVERSE CITY  MOSUNNY   65  54  67 NE5       29.80R
$$
MIZ007>008-015-241500-
EASTERN UPPER MICHIGAN

CITY           SKY/WX    TMP DP  RH WIND       PRES   REMARKS
KINROSS        SUNNY     59  51  75 N9        29.79S
MACKINAC ISLAN SUNNY     60  52  75 NW3       29.79R
NEWBERRY       SUNNY     59  53  81 N5        29.80R
S. S. MARIE    SUNNY     60  51  72 W6        29.78S
MUNISING         N/A     55  50  83 N8        29.83R
$$
MIZ004>006-011>014-085-241500-
CENTRAL UPPER MICHIGAN

CITY           SKY/WX    TMP DP  RH WIND       PRES   REMARKS
MANISTIQUE     PTSUNNY   62  53  71 NW7       29.81R
ESCANABA       CLOUDY    61  52  72 NW8       29.82R
MENOMINEE      RAIN      59  55  87 W3        29.85R
SAWYER-GWINN   CLOUDY    59  50  72 N5        29.83R
$$
MIZ001>003-009>011-084-241500-
WESTERN UPPER MICHIGAN

CITY           SKY/WX    TMP DP  RH WIND       PRES   REMARKS
IRON MOUNTAIN  CLOUDY    60  51  72 NW10      29.83S
HOUGHTON       LGT RAIN  55  51  86 W9        29.83R
COPPER HARBOR    N/A     57  52  83 N9        29.82R
IRONWOOD       CLOUDY    54  50  86 W14       29.88R
$$

ABBREVIATIONS USED IN REMARKS
   TC - TEMPERATURE IN CELSIUS
  WCI - WIND CHILL INDEX
   HX - HEAT INDEX
  VSB - VISIBILITY





USA.gov is the U.S. government's official web portal to all federal, state and local government web resources and services.